Wind_Speed
20 20 21 21 21 21 20 20 20 19 18 16 14 13 11 17 18 23 19 7 12 12 16 16 20 13 5 3 3 2 2 5 3 3 2 3 6 2 4 2 2 3 2 3 13
20 21 22 22 22 22 21 21 21 20 19 16 12 10 7 11 19 23 12 11 12 14 17 14 7 9 3 3 2 3 4 5 5 2 2 8 4 9 7 6 3 2 4 5 17
20 21 22 23 23 22 22 22 23 22 18 13 10 10 7 6 5 4 11 11 12 14 11 6 7 3 3 2 2 1 4 4 4 11 12 10 11 10 6 6 1 1 10 4 12
21 22 23 24 24 22 23 23 24 17 15 10 11 9 7 4 4 5 13 12 15 11 7 4 4 2 1 2 2 3 7 5 5 8 11 12 9 14 13 12 13 11 13 10 13
22 23 24 24 25 23 26 27 21 12 14 10 10 7 4 6 4 11 16 16 14 14 5 1 3 1 1 2 2 5 6 8 7 7 9 12 16 17 21 13 18 14 12 12 16
23 24 25 25 26 25 28 28 13 8 10 10 10 13 6 7 10 14 14 21 17 11 4 2 4 4 3 3 4 3 6 12 9 14 12 15 19 9 16 5 14 15 15 11 17
24 25 27 26 27 26 29 21 8 8 8 7 7 9 11 4 15 12 15 21 18 13 4 6 5 4 3 3 3 4 8 11 12 10 8 5 14 18 16 18 18 17 16 13 13
25 27 28 27 26 27 30 12 8 7 10 7 6 4 4 7 18 17 20 30 23 12 7 10 5 3 3 2 3 5 4 7 2 3 5 8 17 15 14 18 19 18 13 13 9
27 28 29 27 25 28 29 6 8 4 5 10 4 5 3 11 24 17 16 22 16 11 4 2 3 1 1 3 5 2 6 5 11 4 6 9 12 13 9 13 17 14 12 11 10
29 29 28 26 22 29 27 5 11 14 4 3 9 4 6 7 18 16 26 18 4 7 4 6 4 1 0 1 5 5 8 8 13 4 4 12 19 17 10 11 19 16 13 11 12
28 28 27 24 18 25 27 2 8 6 14 4 1 1 5 18 3 20 25 7 5 6 4 4 2 4 5 6 13 15 14 19 21 16 14 13 17 18 10 13 12 13 12 11 11
27 28 26 23 11 19 25 8 2 2 1 1 2 4 5 4 4 14 24 6 5 4 6 3 2 4 6 11 16 15 16 18 13 13 7 11 17 13 10 11 11 11 10 12 12
27 27 25 20 6 13 22 9 2 1 2 4 2 3 5 6 4 7 10 6 4 4 4 3 5 8 6 14 15 12 13 12 12 7 13 15 9 4 2 3 7 3 5 12 14
26 26 23 16 3 10 4 12 1 2 4 10 6 5 7 0 1 6 8 2 4 5 7 5 3 4 10 12 9 7 3 11 16 9 4 5 3 5 3 9 9 6 8 13 10
26 25 19 12 5 3 11 5 3 1 5 10 7 6 10 6 7 8 13 6 2 6 2 4 5 10 7 7 9 7 10 14 12 12 4 3 0 4 3 7 11 10 11 10 8
25 24 13 8 5 12 9 4 2 5 3 5 5 8 7 6 7 7 8 7 2 4 2 6 5 3 4 12 11 10 9 5 4 2 3 5 1 5 5 5 6 8 10 13 8
24 22 9 8 10 14 1 1 5 6 3 8 5 6 4 5 7 9 7 9 9 9 7 9 4 4 1 9 3 11 4 4 4 4 2 7 7 3 8 9 4 6 10 12 10
23 16 5 7 15 8 1 5 9 1 3 4 5 6 5 9 4 8 5 6 4 4 4 7 9 7 6 2 5 7 4 2 4 4 4 7 5 4 4 4 9 9 8 11 12
21 10 2 15 11 6 4 6 4 5 3 5 5 5 5 4 2 7 5 3 2 4 5 4 6 6 4 3 2 7 4 4 4 1 2 2 1 2 12 14 12 11 11 11 10
15 6 3 17 9 2 5 3 2 3 2 2 2 4 4 6 7 7 4 3 5 3 2 3 7 3 7 4 2 2 5 3 3 4 3 2 4 4 11 11 11 10 10 8 9
6 3 4 14 4 5 4 3 3 2 2 2 3 1 1 3 2 4 4 5 2 6 1 2 1 7 4 4 4 5 4 4 1 2 2 2 2 4 6 6 6 6 6 7 7
1 2 6 9 4 1 2 4 3 2 2 2 2 2 2 0 2 2 4 5 3 2 6 1 3 5 5 6 4 2 5 4 2 5 2 1 2 4 4 5 4 5 5 5 6
2 2 5 3 3 1 2 1 2 3 3 4 4 4 2 1 2 3 3 4 3 3 6 3 2 5 8 5 4 4 6 5 3 0 2 2 2 2 3 5 6 5 5 5 5
2 2 3 5 1 6 3 2 2 1 2 2 3 2 2 1 2 3 3 3 4 2 9 1 1 4 4 5 3 6 11 7 1 2 2 1 3 4 6 4 3 4 5 5 4
2 1 1 2 2 3 3 3 3 4 1 1 1 3 4 0 3 3 3 4 2 5 4 3 2 1 9 12 5 7 4 7 5 1 2 3 1 4 3 2 1 1 2 3 5
4 3 0 2 2 4 2 5 6 1 5 3 3 5 5 5 7 4 1 2 4 2 3 4 2 4 5 3 4 4 2 5 2 2 1 1 3 2 3 2 1 3 2 1 2
4 3 3 4 2 3 4 5 6 6 1 4 4 3 2 9 7 8 6 5 5 3 1 2 2 5 5 6 6 3 2 1 3 2 2 2 1 4 2 3 2 3 3 2 1
Wind_Direction
17 12 7 4 2 0 359 356 352 350 349 348 354 4 70 81 77 64 53 29 24 16 15 18 29 24 60 43 2 140 250 241 238 179 269 356 350 339 283 274 304 295 281 321 173
14 10 5 2 1 358 358 354 350 346 343 342 349 1 33 105 70 54 24 23 14 4 6 15 10 15 48 8 14 189 226 228 195 232 360 339 354 310 336 338 264 336 338 329 175
13 9 4 1 359 359 357 353 349 345 345 353 354 353 356 174 68 2 15 10 1 350 356 9 14 32 41 343 311 344 250 322 279 305 319 324 317 338 308 304 271 6 322 277 229
11 7 3 1 358 2 357 354 350 359 2 11 1 6 64 110 80 332 347 346 349 348 350 1 17 44 352 292 344 314 267 282 304 305 311 295 293 288 276 273 300 288 286 266 222
10 6 3 1 358 2 357 353 350 11 16 16 20 44 54 45 45 341 343 340 336 341 336 8 28 77 299 227 281 231 265 273 266 286 285 283 273 264 268 284 286 286 285 242 211
9 6 4 2 2 4 358 351 358 6 20 37 52 62 71 72 340 347 4 2 349 340 307 193 211 203 232 221 190 231 255 282 284 282 276 267 271 276 256 227 296 300 299 249 207
6 3 1 0 1 4 358 356 24 17 46 78 83 80 67 76 4 11 360 356 337 316 269 256 227 169 170 267 260 275 288 286 262 253 254 242 263 252 259 256 253 267 283 247 186
4 3 360 359 360 3 358 4 32 67 60 64 53 52 100 13 12 12 352 341 340 340 279 278 221 186 168 290 320 281 262 293 102 297 252 173 268 259 251 245 243 250 252 247 178
3 1 359 357 358 2 358 33 46 73 49 42 50 73 357 348 358 5 356 333 335 8 35 99 102 129 2 304 282 228 272 267 309 240 255 199 268 271 273 241 240 230 238 222 171
1 358 357 354 358 2 359 115 75 40 27 33 33 48 13 316 329 344 352 349 351 350 21 36 44 48 167 137 285 296 278 269 273 257 244 275 267 274 281 265 237 231 233 203 173
358 356 356 352 357 6 11 59 17 360 36 62 325 105 312 335 357 359 357 360 32 45 22 322 317 249 233 286 272 272 268 269 273 271 272 258 261 268 281 262 251 217 223 195 159
356 354 355 350 354 10 37 66 77 291 29 20 297 290 297 331 309 342 0 39 23 2 349 11 248 251 266 286 277 260 251 258 279 269 217 255 257 258 255 243 230 221 228 174 134
356 353 355 351 359 9 48 43 32 135 70 347 314 320 319 352 334 317 11 345 14 353 354 285 255 319 301 305 301 266 266 264 267 280 258 255 273 244 237 110 212 181 217 157 151
356 353 354 357 7 2 45 0 92 133 78 336 347 0 349 277 64 339 13 9 348 333 328 259 288 312 321 307 337 311 252 274 280 289 283 171 290 65 3 60 54 359 205 149 148
353 352 353 12 346 42 322 328 161 91 37 336 322 332 344 42 316 339 355 12 4 314 332 274 316 331 317 309 307 263 312 290 289 293 335 41 74 8 14 42 45 42 38 55 122
348 349 353 359 355 344 340 146 156 43 300 350 342 353 7 20 356 319 6 4 281 338 265 265 286 244 251 297 266 283 295 285 274 318 4 316 34 26 9 327 2 37 37 47 54
345 347 352 356 337 333 54 51 33 85 357 341 338 349 335 331 349 13 358 17 38 357 2 323 294 292 316 320 335 336 350 344 3 13 302 344 57 41 338 350 319 34 50 49 46
342 346 355 8 344 346 332 42 60 326 315 331 340 323 31 1 14 349 13 18 26 17 315 356 331 8 346 346 302 313 352 14 316 342 312 11 29 20 340 18 62 59 55 59 52
337 354 39 344 344 347 65 47 194 205 242 338 313 21 340 18 15 4 26 330 353 350 358 342 279 313 276 302 315 330 16 310 292 223 35 10 83 265 20 28 42 47 51 57 55
331 347 356 347 340 18 72 141 152 197 137 80 74 56 339 334 5 24 353 290 335 1 204 294 295 276 301 328 324 296 309 352 13 0 19 74 50 11 354 360 20 40 44 45 55
324 23 343 346 4 45 104 182 194 189 129 114 180 285 318 299 20 328 270 287 336 314 303 301 207 294 346 17 330 344 7 341 353 349 346 15 61 4 333 342 356 35 37 31 50
342 327 347 352 49 8 128 181 177 166 138 128 134 181 210 266 268 276 250 223 325 313 339 297 278 282 270 296 275 356 11 358 355 335 39 331 53 347 358 3 21 44 46 38 46
94 297 344 9 102 340 248 187 204 172 185 157 172 184 160 217 351 209 262 246 341 27 347 355 314 327 347 353 4 26 354 345 273 330 11 45 15 18 48 36 32 36 37 36 44
99 335 352 48 81 126 137 215 199 231 163 171 152 124 76 355 215 286 285 287 342 44 7 335 261 177 216 241 328 312 327 350 348 26 316 80 316 1 28 35 29 28 13 6 25
47 148 338 302 326 100 87 194 165 203 173 196 177 189 154 249 307 244 256 296 337 9 24 84 295 341 270 272 265 256 317 341 37 335 92 309 39 337 354 15 51 54 33 2 1
137 144 55 89 94 88 333 228 194 198 144 236 168 168 169 184 194 241 173 219 247 346 49 355 305 347 291 249 354 274 27 346 355 352 313 354 40 269 330 107 354 281 210 176 172
125 111 117 137 132 104 223 198 211 141 282 181 176 123 223 240 218 232 215 242 244 302 278 64 44 359 276 340 330 357 251 336 300 284 236 61 350 332 24 43 20 332 232 256 32
Height
850 848 845 842 839 836 832 829 826 823 820 817 816 814 812 811 811 808 807 815 814 812 809 807 803 801 801 803 803 804 808 810 803 801 795 792 792 784 784 781 781 780 777 775 773
851 847 844 842 838 835 832 828 825 822 819 817 815 813 811 811 811 810 817 816 815 812 810 807 807 804 807 807 805 803 806 801 797 795 797 797 796 794 787 785 780 780 779 777 774
851 848 845 841 838 834 831 827 824 820 817 814 813 812 811 810 812 818 818 817 816 813 812 811 810 809 810 810 807 807 802 800 798 796 796 799 796 796 792 785 781 782 779 779 777
852 848 845 841 837 833 830 826 822 819 816 815 813 811 810 811 823 819 818 817 816 814 813 812 812 814 815 814 812 813 805 803 802 799 799 799 797 792 794 788 783 781 779 777 775
851 849 845 841 837 833 829 824 821 818 816 815 814 813 812 817 823 821 819 817 815 813 812 812 813 815 817 817 816 814 809 803 801 801 800 798 793 788 783 785 782 779 774 771 769
852 848 844 840 836 832 828 823 820 819 817 816 816 815 815 827 823 821 818 816 814 812 811 811 811 812 814 816 815 810 807 803 801 797 796 797 791 791 774 778 778 776 771 767 764
852 848 844 840 835 831 827 821 819 819 817 816 817 817 819 828 823 820 817 815 813 810 809 808 809 811 812 814 810 809 808 801 794 792 791 790 789 781 777 775 774 772 770 764 762
853 848 844 839 835 831 826 821 820 819 819 818 818 817 823 824 822 820 816 810 808 805 806 806 807 809 811 810 809 810 808 802 789 787 787 789 782 771 769 768 764 764 766 760 762
853 849 844 840 835 831 825 821 820 820 820 819 819 818 827 823 820 820 818 813 806 805 805 807 808 811 812 812 809 811 812 813 793 786 785 785 776 765 766 764 759 758 759 757 761
854 850 845 840 835 831 825 822 820 819 819 820 821 825 826 829 824 820 817 812 809 807 808 810 814 816 818 814 813 810 810 806 801 788 783 780 774 766 765 764 755 753 754 755 758
855 850 846 841 836 832 825 822 826 826 826 837 838 835 832 829 824 821 816 812 812 816 821 815 816 822 817 810 811 807 806 797 785 781 781 777 771 763 761 757 753 750 751 753 756
856 851 846 842 839 836 831 833 843 846 840 839 837 836 833 832 831 823 819 819 819 821 816 819 826 812 812 806 804 799 798 788 782 774 778 771 764 758 755 749 748 747 751 752 751
856 851 846 842 840 838 839 843 842 843 844 839 838 837 835 835 834 831 826 825 825 825 826 819 812 809 810 805 798 790 787 784 781 776 767 766 761 759 749 747 747 748 748 754 756
856 851 846 843 844 842 843 843 842 842 859 850 842 840 837 835 834 832 829 831 827 829 826 821 812 811 811 802 798 787 783 783 777 771 761 764 763 750 755 750 747 750 746 751 758
857 852 847 844 845 844 845 842 842 843 868 851 850 844 843 845 847 837 834 831 834 832 832 814 813 811 808 802 797 787 786 780 772 766 769 760 758 760 758 760 758 762 759 760 764
857 852 848 847 845 845 843 842 843 856 877 857 856 856 851 849 850 845 842 838 835 835 830 826 816 813 809 800 793 785 778 773 768 780 772 762 756 778 780 779 774 769 772 771 770
856 851 849 847 848 844 843 846 858 863 862 864 867 862 862 858 855 858 856 865 864 863 859 832 814 810 805 798 790 787 788 801 784 783 768 766 762 793 790 787 786 779 780 783 784
855 851 849 849 846 844 844 852 868 875 889 874 870 865 867 866 863 865 863 871 867 865 860 859 832 814 806 806 800 793 786 783 784 773 772 769 793 794 795 790 789 791 790 790 793
853 850 850 849 845 843 849 886 890 899 881 876 872 871 874 868 874 873 893 882 870 874 868 872 841 815 809 806 805 788 789 790 786 789 783 787 797 796 793 792 795 799 800 800 802
854 851 850 848 845 843 861 878 875 875 872 876 885 881 882 879 881 891 901 876 871 870 872 863 857 821 812 806 803 800 797 789 791 785 790 779 789 801 806 811 807 808 812 814 813
853 853 851 847 846 855 883 880 874 871 872 879 884 882 881 894 901 893 903 877 870 867 871 863 866 834 822 820 821 806 811 804 805 798 787 772 796 819 820 821 821 821 823 821 820
853 854 849 847 862 884 883 879 867 871 870 873 876 879 880 881 910 891 900 882 868 869 863 864 863 866 832 822 822 817 819 819 804 797 810 804 805 827 826 825 824 826 828 826 826
855 855 850 847 878 890 877 871 870 870 870 871 873 874 875 881 897 887 875 866 866 869 866 866 883 868 843 832 820 829 821 826 827 828 829 810 808 829 825 826 828 829 830 831 830
855 855 855 859 871 874 881 873 873 870 870 871 871 873 878 882 881 883 874 865 864 866 861 867 869 871 863 850 845 847 828 829 839 817 829 827 823 825 829 828 830 833 835 835 835
855 860 863 859 871 876 883 879 874 873 872 874 874 874 888 898 890 890 876 869 865 867 872 879 879 879 862 853 847 837 839 837 848 837 831 830 837 830 834 834 837 841 842 839 836
854 858 866 869 873 879 884 883 871 875 877 875 882 871 883 889 883 895 878 874 873 870 889 889 882 877 871 841 853 838 835 840 839 837 829 836 832 833 834 839 841 845 848 844 844
850 853 854 867 875 881 875 870 865 869 870 870 874 880 883 873 872 871 873 870 871 869 883 892 890 878 876 856 871 845 857 848 842 846 841 831 832 834 834 832 837 841 846 845 842